KF4URA Weather Reports


Display with metric or nautical units.
time (UTC)temp
F
wind
direction
speed
MPH
gust
MPH
rain 1hr
in
rain 24hr
in
rain mn
in
humidity
%
barometer
mb
20260906180521 77 69 1.0 7.0 0.00 0.00 0.00 57 1015.3
20260906175534 77 68 0.0 4.0 0.00 0.00 0.00 59 1015.4
20260906174531 77 321 1.0 4.0 0.00 0.00 0.00 57 1015.5
20260906172404 77 56 0.0 8.0 0.00 0.00 0.00 57 1015.5
20260906171356 77 313 1.0 8.0 0.00 0.00 0.00 58 1015.8
20260906165322 76 67 0.0 3.0 0.00 0.00 0.00 61 1016.0
20260906164327 76 74 1.0 8.0 0.00 0.00 0.00 59 1016.0
20260906163326 76 78 2.0 8.0 0.00 0.00 0.00 60 1016.1
20260906161220 76 74 0.0 4.0 0.00 0.00 0.00 63 1016.1
20260906160156 76 325 0.0 3.0 0.00 0.00 0.00 61 1016.0
20260906153010 74 14 0.0 2.0 0.00 0.00 0.00 65 1015.9
20260906151939 74 13 0.0 7.0 0.00 0.00 0.00 66 1016.0
20260906150923 74 17 1.0 7.0 0.00 0.00 0.00 65 1016.0
20260906145928 73 69 0.0 4.0 0.00 0.00 0.00 69 1015.9
20260906144924 72 71 0.0 4.0 0.00 0.00 0.00 71 1015.8
20260906143945 71 355 0.0 2.0 0.00 0.00 0.00 73 1015.8
20260906142924 71 355 0.0 5.0 0.00 0.00 0.00 73 1015.7
20260906141924 70 0 0.0 2.0 0.00 0.00 0.00 74 1015.7
20260906135834 69 72 0.0 8.0 0.00 0.00 0.00 76 1015.6
20260906134803 69 347 0.0 3.0 0.00 0.00 0.00 77 1015.6
20260906133809 68 85 0.0 3.0 0.00 0.00 0.00 79 1015.5
20260906132813 67 22 0.0 4.0 0.00 0.00 0.00 79 1015.4
20260906131817 67 5 0.0 3.0 0.00 0.00 0.00 81 1015.5
20260906130811 66 26 0.0 4.0 0.00 0.00 0.00 81 1015.3
20260906125736 65 319 0.0 2.0 0.00 0.00 0.00 82 1015.3
20260906123540 64 58 0.0 2.0 0.00 0.00 0.00 85 1015.2
20260906122512 64 44 0.0 0.0 0.00 0.00 0.00 87 1015.0
20260906120348 62 30 0.0 0.0 0.00 0.00 0.00 89 1014.8
20260906115353 62 30 0.0 0.0 0.00 0.00 0.00 90 1014.5
20260906114354 62 30 0.0 0.0 0.00 0.00 0.00 90 1014.4
20260906113351 62 30 0.0 0.0 0.00 0.03 0.00 89 1014.4
20260906112330 62 30 0.0 0.0 0.00 0.03 0.00 89 1014.3
20260906111354 62 30 0.0 0.0 0.00 0.06 0.00 88 1014.2
20260906110322 62 30 0.0 0.0 0.00 0.06 0.00 87 1014.2
20260906105312 63 30 0.0 0.0 0.00 0.08 0.00 87 1014.2
20260906104251 63 30 0.0 0.0 0.00 0.10 0.00 87 1014.2
20260906103314 63 30 0.0 0.0 0.00 0.11 0.00 86 1014.2
20260906102319 63 30 0.0 0.0 0.00 0.13 0.00 86 1014.1
20260906101332 63 30 0.0 0.0 0.00 0.14 0.00 86 1014.0
20260906094037 64 31 0.0 0.0 0.00 0.18 0.00 84 1013.8
20260906093056 65 31 0.0 0.0 0.00 0.19 0.00 83 1013.8
20260906092044 65 31 0.0 0.0 0.00 0.24 0.00 82 1013.8
20260906091039 65 31 0.0 0.0 0.00 0.27 0.00 81 1013.8
20260906090058 66 31 0.0 0.0 0.00 0.27 0.00 81 1013.6
20260906085113 66 30 0.0 0.0 0.00 0.27 0.00 80 1013.5
20260906084100 67 30 0.0 0.0 0.00 0.28 0.00 79 1013.5
20260906083054 67 31 0.0 1.0 0.00 0.29 0.00 80 1013.6
20260906082109 67 31 0.0 0.0 0.00 0.36 0.00 79 1013.6
20260906081036 68 29 0.0 0.0 0.00 0.39 0.00 78 1013.5
20260906080032 68 29 0.0 0.0 0.00 0.39 0.00 78 1013.5
20260906075024 68 29 0.0 1.0 0.00 0.39 0.00 77 1013.5
20260906074004 69 31 0.0 0.0 0.00 0.39 0.00 76 1013.4
20260906072958 69 31 0.0 0.0 0.00 0.39 0.00 76 1013.4
20260906070810 69 31 0.0 0.0 0.00 0.39 0.00 75 1013.1
20260906065807 69 12 0.0 0.0 0.00 0.39 0.00 75 1013.3
20260906064743 69 12 0.0 0.0 0.00 0.39 0.00 75 1013.4
20260906063734 69 12 0.0 0.0 0.00 0.39 0.00 75 1013.4
20260906062751 69 13 0.0 0.0 0.00 0.39 0.00 76 1013.4
20260906061729 69 13 0.0 0.0 0.00 0.39 0.00 75 1013.5
20260906055551 69 13 0.0 0.0 0.00 0.39 0.00 77 1013.2
20260906054539 69 13 0.0 0.0 0.00 0.39 0.00 78 1013.1
20260906053511 68 13 0.0 2.0 0.00 0.39 0.00 80 1013.0
20260906052436 68 9 0.0 0.0 0.00 0.39 0.00 81 1012.9
20260906051429 69 9 0.0 0.0 0.00 0.39 0.00 82 1012.9
20260906050445 69 9 0.0 0.0 0.00 0.39 0.00 82 1012.7
20260906045426 69 9 0.0 0.0 0.00 0.39 0.00 83 1012.7
20260906044358 69 9 0.0 0.0 0.00 0.39 0.00 83 1012.6
20260906043409 70 9 0.0 0.0 0.00 0.39 0.00 83 1012.4
20260906042339 70 9 0.0 0.0 0.00 0.39 0.00 84 1012.4
20260906041337 70 5 0.0 0.0 0.00 0.39 0.00 84 1012.4
20260906040332 70 5 0.0 0.0 0.00 0.39 0.00 83 1012.4
20260906035306 71 5 0.0 0.0 0.00 0.39 0.40 83 1012.4
20260906034236 71 5 0.0 0.0 0.00 0.39 0.40 84 1012.5
20260906033236 71 5 0.0 0.0 0.00 0.39 0.40 84 1012.5
20260906032237 72 5 0.0 0.0 0.00 0.39 0.40 84 1012.5
20260906031219 72 5 0.0 0.0 0.00 0.39 0.40 85 1012.4
20260906030231 72 5 0.0 0.0 0.00 0.39 0.40 85 1012.4
20260906025213 72 5 0.0 0.0 0.00 0.39 0.40 86 1012.4
20260906024148 73 5 0.0 0.0 0.00 0.39 0.40 85 1012.5
20260906023115 73 355 0.0 1.0 0.00 0.39 0.40 86 1012.4
20260906022052 74 355 0.0 0.0 0.00 0.39 0.40 88 1012.3
20260906021102 74 355 0.0 0.0 0.00 0.39 0.40 88 1012.2
20260906015015 74 355 0.0 0.0 0.00 0.39 0.40 88 1012.1
20260906014025 75 355 0.0 0.0 0.00 0.39 0.40 87 1011.8
20260906013047 75 355 0.0 0.0 0.00 0.39 0.40 87 1011.7
20260906010940 76 345 0.0 0.0 0.00 0.39 0.40 87 1011.5
20260906005958 76 345 0.0 0.0 0.00 0.39 0.40 86 1011.4
20260906003836 77 262 0.0 0.0 0.00 0.39 0.40 85 1011.0
20260906002847 77 262 0.0 0.0 0.00 0.39 0.40 85 1011.1
20260906001857 78 262 0.0 0.0 0.00 0.39 0.40 84 1011.1
20260906000907 78 262 0.0 0.0 0.00 0.39 0.40 83 1011.1
20260905235926 78 259 0.0 0.0 0.00 0.39 0.40 83 1011.1
20260905234939 79 259 0.0 0.0 0.00 0.39 0.40 82 1011.2
20260905232841 80 259 0.0 0.0 0.00 0.39 0.40 80 1011.0
20260905231834 80 259 0.0 0.0 0.00 0.39 0.40 80 1011.1
20260905230841 80 259 0.0 0.0 0.00 0.39 0.40 80 1010.6
20260905224657 80 259 0.0 0.0 0.00 0.39 0.40 79 1010.3
20260905223655 80 259 0.0 0.0 0.00 0.39 0.40 78 1010.3
20260905222654 80 259 0.0 0.0 0.00 0.39 0.40 78 1010.2
20260905220533 81 259 0.0 1.0 0.00 0.39 0.40 77 1010.4
20260905215517 81 259 0.0 0.0 0.00 0.39 0.40 76 1010.5
20260905214456 81 259 0.0 2.0 0.00 0.39 0.40 76 1010.4
20260905213421 81 259 0.0 1.0 0.00 0.39 0.40 76 1010.3
20260905212432 81 259 0.0 0.0 0.00 0.39 0.40 75 1010.4
20260905211407 82 258 0.0 2.0 0.00 0.39 0.40 75 1010.4
20260905210418 82 259 0.0 0.0 0.00 0.39 0.40 74 1010.4
20260905205401 82 259 0.0 0.0 0.00 0.39 0.40 75 1010.4
20260905204330 82 259 0.0 0.0 0.00 0.39 0.40 74 1010.5
20260905203344 82 259 0.0 0.0 0.00 0.39 0.40 75 1010.8
20260905202334 82 259 0.0 0.0 0.00 0.39 0.40 73 1010.9
20260905201323 81 259 0.0 2.0 0.00 0.39 0.40 73 1011.0
20260905200331 81 254 0.0 1.0 0.00 0.39 0.40 72 1011.0
20260905195333 81 254 0.0 1.0 0.00 0.39 0.40 74 1011.0
20260905194332 81 254 0.0 1.0 0.00 0.39 0.40 75 1011.1
20260905193311 81 254 0.0 0.0 0.00 0.39 0.40 75 1011.2
20260905191201 81 254 0.0 0.0 0.00 0.39 0.40 75 1011.4
20260905190136 81 254 0.0 2.0 0.00 0.39 0.40 76 1011.5
20260905185150 80 254 0.0 0.0 0.00 0.39 0.40 77 1011.7
20260905184204 80 254 0.0 0.0 0.00 0.39 0.40 77 1011.8
20260905183135 80 254 0.0 0.0 0.00 0.39 0.40 75 1011.9